Home   Weather   Sanandaj   Past weeks

Flag for Iran Past Weather in Sanandaj, Iran — Yesterday and Last 2 Weeks

Now
102 °F

Passing clouds.


Feels Like: 96 °F
Forecast: 76 / 101 °F
Wind: 5 mph from Southwest

Location: Sanandaj Airport

Current Time: Jul 23, 2017 at 3:03:40 pm

Latest Report: Jul 23, 2017 at 2:30 pm


Visibility: N/A

Pressure: 29.86 "Hg (25.33 "Hg at 1502m altitude)

Humidity: 7%

Dew Point: 27 °F

Location of SanandajLocation

Past Weather in Sanandaj — Graph

°F

Sanandaj Temperature Yesterday

Maximum temperature yesterday: 104 °F (at 4:30 pm)
Minimum temperature yesterday: 63 °F (at 6:30 am)
Average temperature yesterday: 84 °F

High & Low Weather Summary for the Past Weeks

 TemperatureHumidityPressure
High104 °F (Jul 18, 4:30 pm)56% (Jul 15, 6:00 am)30.07 "Hg (Jul 15, 6:00 am)
Low61 °F (Jul 16, 5:22 am)5% (Jul 11, 3:30 pm)29.71 "Hg (Jul 13, 6:30 pm)
Average84 °F21%29.91 "Hg
* Reported Jul 8 1:30 pm — Jul 23 1:30 pm, Sanandaj. Weather by CustomWeather, © 2017

Note: Actual official high and low records may vary slightly from our data, if they occured in-between our weather recording intervals... More about our weather records

Advertising

Sanandaj Weather History for the Previous 24 Hours

Scroll right to see more
 ConditionsComfort  
Time TempWeatherWind HumidityBarometerVisibility
1:30 pm
Sun, Jul 23
99 °FPassing clouds.2 mph8%29.89 "HgN/A
1:00 pm99 °FPassing clouds.3 mph8%29.92 "HgN/A
12:30 pm97 °FSunny.2 mph8%29.92 "Hg10 mi
11:30 am91 °FSunny.2 mph11%29.95 "Hg10 mi
10:30 am88 °FSunny.2 mph12%29.95 "Hg10 mi
9:30 am84 °FSunny.No wind14%29.98 "Hg10 mi
8:30 am72 °FSunny.2 mph23%29.98 "Hg10 mi
7:30 am64 °FSunny.No wind34%29.95 "Hg10 mi
6:30 am68 °FClear.2 mph28%29.95 "Hg10 mi
5:30 am66 °FClear.No wind30%29.95 "Hg10 mi
5:22 am66 °FClear.No wind30%29.95 "Hg10 mi
4:25 am72 °FClear.2 mph25%29.92 "Hg10 mi
3:21 am75 °FClear.2 mph19%29.92 "Hg10 mi
2:21 am81 °FClear.2 mph14%29.92 "Hg10 mi
1:25 am79 °FClear.No wind17%29.92 "Hg10 mi
12:21 am84 °FClear.2 mph12%29.92 "Hg10 mi
11:25 pm
Sat, Jul 22
82 °FClear.2 mph15%29.92 "Hg10 mi
10:24 pm86 °FClear.No wind14%29.89 "Hg10 mi
9:22 pm90 °FPassing clouds.2 mph11%29.89 "HgN/A
8:22 pm95 °FPassing clouds.2 mph9%29.86 "HgN/A
7:22 pm102 °FPassing clouds.2 mph7%29.86 "HgN/A
6:22 pm102 °FPassing clouds.5 mph6%29.89 "HgN/A
5:30 pm104 °FPassing clouds.5 mph6%29.89 "HgN/A
4:30 pm104 °FSunny.5 mph6%29.89 "Hg10 mi
3:30 pm102 °FPassing clouds.7 mph6%29.92 "HgN/A
Weather by CustomWeather, © 2017

See weather overviewHow to use our weather pages